Weather History for KIRS - February, 2014

Change the Weather History Date:

Friday, February 21, 2014

  Actual Average (KHAI) Record (KHAI)
Temperature  
Mean Temperature 32 °F -  
Max Temperature 35 °F 39 °F 65 °F (1983)
Min Temperature 28 °F 20 °F -10 °F (1968)
Degree Days  
Heating Degree Days 34    
Moisture  
Dew Point 24 °F    
Average Humidity 72    
Maximum Humidity 87    
Minimum Humidity 51    
Precipitation  
Precipitation 0.00 in - - ()
Sea Level Pressure  
Sea Level Pressure 29.60 in    
Wind  
Wind Speed 23 mph (SW)    
Max Wind Speed 38 mph    
Max Gust Speed 46 mph    
Visibility 10 miles    
Events Snow    
Averages and records for this station are not official NWS values.
T = Trace of Precipitation, MM = Missing Value Source: NWS Daily Summary

Daily Weather History Graph

Daily Weather History Graph

Search for Another Location

Airport or City:

Trip Planner

Search our weather history database for the weather conditions in past years. The results will help you decide how hot, cold, wet, or windy it might be!

Date:

Astronomy

Feb. 21, 2014 Rise Set
Actual Time 7:28 AM EST 6:22 PM EST
Civil Twilight 7:00 AM EST 6:50 PM EST
Nautical Twilight 6:28 AM EST 7:23 PM EST
Astronomical Twilight 5:56 AM EST 7:55 PM EST
Moon 12:20 AM EST (2/21) 10:46 AM EST (2/21)
Length of Visible Light 11h 50m
Length of Day
10h 53m
Waning Gibbous, 61% of the Moon is Illuminated
Feb 21
Waning Gibbous
Feb 22
Last Quarter
Mar 1
New
Mar 8
First Quarter
Mar 16
Full

Hourly Weather History & Observations

Time (EST) Temp. Windchill Dew Point Humidity Pressure Visibility Wind Dir Wind Speed Gust Speed Precip Events Conditions
12:15 AM 35.6 °F 24.5 °F 30.2 °F 81% 29.45 in 10.0 mi SW 20.7 mph 29.9 mph N/A   Overcast
12:34 AM 35.6 °F 25.5 °F 30.2 °F 81% 29.45 in 10.0 mi SW 17.3 mph 28.8 mph N/A   Overcast
12:55 AM 35.6 °F 25.5 °F 30.2 °F 81% 29.44 in 10.0 mi SW 17.3 mph 25.3 mph N/A   Overcast
1:15 AM 35.6 °F 23.4 °F 30.2 °F 81% 29.44 in 10.0 mi SW 25.3 mph 33.4 mph N/A   Overcast
1:34 AM 35.6 °F 24.2 °F 30.2 °F 81% 29.44 in 10.0 mi SW 21.9 mph 28.8 mph N/A   Overcast
1:55 AM 35.6 °F 23.7 °F 28.4 °F 75% 29.44 in 10.0 mi WSW 24.2 mph 35.7 mph N/A   Overcast
2:14 AM 35.6 °F 24.2 °F 28.4 °F 75% 29.45 in 10.0 mi SW 21.9 mph 31.1 mph N/A   Overcast
2:34 AM 35.6 °F 24.2 °F 28.4 °F 75% 29.45 in 10.0 mi SW 21.9 mph 29.9 mph N/A   Overcast
2:55 AM 35.6 °F 24.5 °F 28.4 °F 75% 29.46 in 10.0 mi SW 20.7 mph 34.5 mph N/A   Overcast
3:14 AM 35.6 °F 24.5 °F 30.2 °F 81% 29.46 in 10.0 mi SW 20.7 mph 28.8 mph N/A   Overcast
3:35 AM 35.6 °F 24.8 °F 30.2 °F 81% 29.46 in 10.0 mi SW 19.6 mph 27.6 mph N/A   Mostly Cloudy
3:55 AM 35.6 °F 24.0 °F 30.2 °F 81% 29.47 in 10.0 mi SW 23.0 mph 32.2 mph N/A   Overcast
4:15 AM 33.8 °F 21.6 °F 30.2 °F 87% 29.47 in 10.0 mi SW 23.0 mph 32.2 mph N/A   Overcast
4:35 AM 33.8 °F 20.8 °F 28.4 °F 81% 29.47 in 10.0 mi SW 26.5 mph 35.7 mph N/A   Overcast
4:54 AM 33.8 °F 21.6 °F 28.4 °F 81% 29.47 in 10.0 mi SW 23.0 mph 33.4 mph N/A   Overcast
5:15 AM 33.8 °F 21.9 °F 28.4 °F 81% 29.48 in 10.0 mi SW 21.9 mph 31.1 mph N/A   Overcast
5:35 AM 33.8 °F 21.3 °F 28.4 °F 81% 29.48 in 10.0 mi SW 24.2 mph 32.2 mph N/A   Overcast
5:54 AM 33.8 °F 20.5 °F 28.4 °F 81% 29.48 in 10.0 mi SW 27.6 mph 34.5 mph N/A   Overcast
6:15 AM 33.8 °F 21.3 °F 28.4 °F 81% 29.48 in 10.0 mi SW 24.2 mph 29.9 mph N/A   Overcast
6:35 AM 33.8 °F 21.3 °F 28.4 °F 81% 29.49 in 10.0 mi SW 24.2 mph 32.2 mph N/A   Overcast
6:54 AM 33.8 °F 20.8 °F 28.4 °F 81% 29.49 in 10.0 mi SW 26.5 mph 32.2 mph N/A   Overcast
7:15 AM 33.8 °F 21.3 °F 28.4 °F 81% 29.49 in 10.0 mi SW 24.2 mph 27.6 mph N/A   Overcast
7:35 AM 33.8 °F 20.8 °F 28.4 °F 81% 29.50 in 10.0 mi SW 26.5 mph 33.4 mph N/A   Overcast
7:54 AM 33.8 °F 20.8 °F 28.4 °F 81% 29.50 in 10.0 mi SW 26.5 mph 33.4 mph N/A   Overcast
8:15 AM 33.8 °F 20.8 °F 28.4 °F 81% 29.51 in 10.0 mi WSW 26.5 mph 38.0 mph N/A   Overcast
8:35 AM 33.8 °F 21.0 °F 28.4 °F 81% 29.52 in 7.0 mi SW 25.3 mph 33.4 mph N/A Snow Light Snow
8:55 AM 32.0 °F 18.4 °F 26.6 °F 80% 29.53 in 10.0 mi SW 26.5 mph 36.8 mph N/A   Overcast
9:15 AM 32.0 °F 17.4 °F 26.6 °F 80% 29.53 in 10.0 mi SW 31.1 mph 39.1 mph N/A   Overcast
9:35 AM 32.0 °F 18.4 °F 26.6 °F 80% 29.53 in 10.0 mi SW 26.5 mph 32.2 mph N/A   Overcast
9:54 AM 30.2 °F 14.7 °F 26.6 °F 86% 29.55 in 10.0 mi WSW 32.2 mph 44.9 mph N/A   Overcast
10:15 AM 30.2 °F 16.5 °F 24.8 °F 80% 29.55 in 10.0 mi WSW 24.2 mph 35.7 mph N/A   Overcast
10:34 AM 30.2 °F 16.2 °F 24.8 °F 80% 29.56 in 10.0 mi WSW 25.3 mph 40.3 mph N/A   Overcast
10:55 AM 30.2 °F 16.2 °F 24.8 °F 80% 29.56 in 10.0 mi SW 25.3 mph 36.8 mph N/A   Overcast
11:15 AM 30.2 °F 16.2 °F 24.8 °F 80% 29.56 in 10.0 mi SW 25.3 mph 34.5 mph N/A   Overcast
11:34 AM 30.2 °F 17.1 °F 26.6 °F 86% 29.57 in 10.0 mi SW 21.9 mph 33.4 mph N/A   Overcast
11:55 AM 30.2 °F 17.4 °F 24.8 °F 80% 29.57 in 10.0 mi SW 20.7 mph 40.3 mph N/A   Overcast
12:15 PM 30.2 °F 15.4 °F 23.0 °F 75% 29.58 in 10.0 mi WSW 28.8 mph 39.1 mph N/A   Overcast
12:34 PM 30.2 °F 16.8 °F 21.2 °F 69% 29.58 in 10.0 mi WSW 23.0 mph 36.8 mph N/A   Overcast
12:55 PM 30.2 °F 15.7 °F 21.2 °F 69% 29.59 in 10.0 mi WSW 27.6 mph 42.6 mph N/A   Overcast
1:15 PM 30.2 °F 15.2 °F 21.2 °F 69% 29.59 in 10.0 mi WSW 29.9 mph 46.0 mph N/A   Overcast
1:34 PM 30.2 °F 13.7 °F 21.2 °F 69% 29.60 in 10.0 mi WSW 38.0 mph 44.9 mph N/A   Overcast
1:55 PM 30.2 °F 15.7 °F 21.2 °F 69% 29.61 in 10.0 mi SW 27.6 mph 35.7 mph N/A   Overcast
2:15 PM 30.2 °F 14.5 °F 21.2 °F 69% 29.62 in 10.0 mi WSW 33.4 mph 42.6 mph N/A   Mostly Cloudy
2:35 PM 30.2 °F 14.5 °F 21.2 °F 69% 29.63 in 10.0 mi WSW 33.4 mph 41.4 mph N/A   Scattered Clouds
2:55 PM 30.2 °F 14.7 °F 21.2 °F 69% 29.63 in 10.0 mi SW 32.2 mph 38.0 mph N/A   Scattered Clouds
3:14 PM 30.2 °F 16.2 °F 21.2 °F 69% 29.64 in 10.0 mi SW 25.3 mph 35.7 mph N/A   Scattered Clouds
3:35 PM 32.0 °F 18.6 °F 21.2 °F 64% 29.65 in 10.0 mi SW 25.3 mph 39.1 mph N/A   Clear
3:55 PM 32.0 °F 18.1 °F 19.4 °F 60% 29.66 in 10.0 mi SW 27.6 mph 39.1 mph N/A   Clear
4:14 PM 32.0 °F 18.1 °F 19.4 °F 60% 29.67 in 10.0 mi WSW 27.6 mph 35.7 mph N/A   Clear
4:35 PM 32.0 °F 18.4 °F 17.6 °F 55% 29.68 in 10.0 mi WSW 26.5 mph 35.7 mph N/A   Clear
4:55 PM 30.2 °F 15.9 °F 17.6 °F 60% 29.69 in 10.0 mi SW 26.5 mph 36.8 mph N/A   Clear
5:14 PM 30.2 °F 16.8 °F 17.6 °F 60% 29.70 in 10.0 mi WSW 23.0 mph 32.2 mph N/A   Clear
5:35 PM 30.2 °F 15.9 °F 15.8 °F 55% 29.71 in 10.0 mi WSW 26.5 mph 34.5 mph N/A   Clear
5:55 PM 30.2 °F 17.1 °F 15.8 °F 55% 29.72 in 10.0 mi WSW 21.9 mph 33.4 mph N/A   Clear
6:14 PM 30.2 °F 17.4 °F 14.0 °F 51% 29.73 in 10.0 mi WSW 20.7 mph 27.6 mph N/A   Clear
6:35 PM 30.2 °F 18.1 °F 15.8 °F 55% 29.74 in 10.0 mi WSW 18.4 mph 28.8 mph N/A   Clear
6:55 PM 30.2 °F 18.9 °F 15.8 °F 55% 29.74 in 10.0 mi WSW 16.1 mph 24.2 mph N/A   Clear
7:15 PM 30.2 °F 18.9 °F 17.6 °F 60% 29.76 in 10.0 mi SW 16.1 mph 21.9 mph N/A   Clear
7:35 PM 28.4 °F 17.5 °F 17.6 °F 64% 29.76 in 10.0 mi SW 13.8 mph 19.6 mph N/A   Clear
7:54 PM 28.4 °F 17.0 °F 17.6 °F 64% 29.76 in 10.0 mi SW 15.0 mph - N/A   Clear
8:15 PM 30.2 °F 18.1 °F 19.4 °F 64% 29.76 in 10.0 mi SW 18.4 mph 24.2 mph N/A   Clear
8:35 PM 30.2 °F 19.3 °F 19.4 °F 64% 29.76 in 10.0 mi SW 15.0 mph 24.2 mph N/A   Clear
8:54 PM 30.2 °F 17.8 °F 19.4 °F 64% 29.77 in 10.0 mi WSW 19.6 mph 25.3 mph N/A   Clear
9:15 PM 32.0 °F 20.5 °F 19.4 °F 60% 29.78 in 10.0 mi SW 18.4 mph 26.5 mph N/A   Scattered Clouds
9:35 PM 32.0 °F 19.5 °F 19.4 °F 60% 29.78 in 10.0 mi SW 21.9 mph 27.6 mph N/A   Mostly Cloudy
9:54 PM 32.0 °F 21.2 °F 21.2 °F 64% 29.79 in 10.0 mi SW 16.1 mph 23.0 mph N/A   Overcast
10:15 PM 33.8 °F 23.2 °F 21.2 °F 60% 29.79 in 10.0 mi WSW 17.3 mph 23.0 mph N/A   Mostly Cloudy
10:35 PM 33.8 °F 23.9 °F 21.2 °F 60% 29.78 in 10.0 mi SW 15.0 mph 21.9 mph N/A   Scattered Clouds
10:54 PM 33.8 °F 24.8 °F 21.2 °F 60% 29.79 in 10.0 mi SW 12.7 mph - N/A   Scattered Clouds
11:15 PM 33.8 °F 25.3 °F 23.0 °F 65% 29.79 in 10.0 mi SW 11.5 mph - N/A   Mostly Cloudy
11:35 PM 33.8 °F 23.9 °F 23.0 °F 65% 29.79 in 10.0 mi SW 15.0 mph - N/A   Overcast
11:54 PM 33.8 °F 23.9 °F 24.8 °F 70% 29.79 in 10.0 mi SW 15.0 mph - N/A   Overcast